Regional Weather Roundup
Issued by NWS Upton, NY

Home | Current Version | Previous Version | Text Only | Print | Product List | Glossary On
Versions: 1 2 3 4 5 6 7 8 9 10 11 12 13 14 15 16 17 18 19 20 21 22 23 24 25 26 27 28 29 30 31 32 33 34 35 36 37 38 39 40 41 42 43 44 45 46 47 48 49 50
000
ASUS41 KOKX 231409
RWROKX

REGIONAL WEATHER ROUNDUP
NATIONAL WEATHER SERVICE NEW YORK NY
1000 AM EDT TUE MAY 23 2017

NOTE: "FAIR" INDICATES FEW OR NO CLOUDS BELOW 12,000 FEET WITH NO
SIGNIFICANT WEATHER AND/OR OBSTRUCTIONS TO VISIBILITY.

NYZ071-072-176-178-NJZ106-104-231500-
NEW YORK CITY METRO AREA

CITY           SKY/WX    TMP DP  RH WIND       PRES   REMARKS
Central Park   CLOUDY    62  49  62 N5        29.98S
Wall St Helipt CLOUDY    63  49  60 E8        29.96S
Bronx Bot Gard   N/A     61  46  59 NE3       29.95F
LaGuardia APRT CLOUDY    62  49  62 E8        29.95S
Kennedy INTL   CLOUDY    62  50  64 NE9       29.96S
Breezy Point     N/A     59 N/A N/A NE7         N/A
Newark/Liberty CLOUDY    62  48  60 NE8       29.95F
Teterboro      CLOUDY    62  50  64 N6        29.94F
$$

NYZ177-179-078>081-231500-
LONG ISLAND NEW YORK

CITY           SKY/WX    TMP DP  RH WIND       PRES   REMARKS
Jones Beach      N/A     61 N/A N/A NE14        N/A
Matinecock PT  NOT AVBL
Farmingdale    CLOUDY    61  48  62 NE9       29.95S
MacArthur/ISP  CLOUDY    62  48  60 NE13      29.93F
Shirley        PTSUNNY   63  52  67 N8        29.94S
Mt Sinai Harb    N/A    N/A N/A N/A NW1         N/A
Westhampton    CLOUDY    62  50  64 N14       29.95S
East Hampton     N/A     60  53  78 N8        29.92F
Montauk          N/A     58  54  86 NW6       29.94F
$$

NYZ052-065-067-231500-
HUDSON VALLEY

CITY           SKY/WX    TMP DP  RH WIND       PRES   REMARKS
White Plains   CLOUDY    62  49  62 N6        29.94F
Larchmont Harb   N/A     57 N/A N/A E5          N/A
Croton O-T Hud   N/A     59 N/A N/A W5          N/A
Newburgh       PTSUNNY   59  54  82 CALM      29.97F
Montgomery     PTSUNNY   61  52  72 NE3       29.95F
Poughkeepsie   MOSUNNY   58  49  72 N5        29.95F
Albany         CLOUDY    62  46  55 CALM      29.95F
$$

NJZ001-105-106-008-010-013-015-019>022-104-231500-
NEW JERSEY

CITY           SKY/WX    TMP DP  RH WIND       PRES   REMARKS
Newark/Liberty CLOUDY    62  48  60 NE8       29.95F
Teterboro      CLOUDY    62  50  64 N6        29.94F
Caldwell       CLOUDY    64  51  62 NE3       29.96F
Somerville     CLOUDY    63  55  75 VRB3      29.95S
Linden           N/A     63  48  57 CALM      29.96S
Perth Amboy      N/A     61 N/A N/A NE6         N/A
Sussex         CLOUDY    61  51  70 CALM      29.97S
Andover          N/A     59  49  69 CALM      29.97S
Trenton        CLOUDY    62  56  80 NE6       29.95F
Millville      CLOUDY    63  60  90 E10       29.94F
Atlantic City  CLOUDY    64  56  75 NE12G18   29.95S
Wrightstown    PTSUNNY   62  57  84 NE8       29.94S
Toms River     CLOUDY    63  54  72 NE12      29.96S
Belmar         CLOUDY    62  50  64 N8        29.96F
$$

PAZ047>061-062-071-231500-
EASTERN PENNSYLVANIA

CITY           SKY/WX    TMP DP  RH WIND       PRES   REMARKS
Philadelphia   CLOUDY    64  55  72 NE8       29.96S
Allentown      CLOUDY    61  49  64 NE3       29.98R
Scranton       CLOUDY    59  46  62 CALM      29.97R
$$

CTZ002-004>006-009-010-012-RIZ004-006-007-MAZ004-011-015-231500-
SOUTHERN NEW ENGLAND
 IN CT

CITY           SKY/WX    TMP DP  RH WIND       PRES   REMARKS
Bradley INTL   PTSUNNY   61  51  70 N6        29.94F
Hartford       MOSUNNY   60  51  72 VRB5      29.94F
Danbury        CLOUDY    59  47  64 NE7       29.96F
Wtrbury/Oxford PTSUNNY   59  45  58 NE9G16    29.96F
Bridgeport     CLOUDY    65  47  52 NE12      29.94F
Meriden        CLOUDY    61  49  64 N9        29.94F
New Haven      PTSUNNY   63  50  62 N8        29.93F
Chester          N/A     61  50  67 N7G15     29.93F
Groton         CLOUDY    65  52  62 N10       29.91F
Wilimantic     MOSUNNY   63  51  65 N7        29.94F

 IN RI

CITY           SKY/WX    TMP DP  RH WIND       PRES   REMARKS
Providence     CLOUDY    63  53  70 N10       29.94S
Block Island   CLOUDY    57  55  93 NE7       29.93F
Westerly       CLOUDY    64  52  64 N9        29.92F
 IN MA

CITY           SKY/WX    TMP DP  RH WIND       PRES   REMARKS
Boston         CLOUDY    62  50  64 NW10      29.93F
Worcester      MOSUNNY   59  44  57 N9        29.94F
Westfield      PTSUNNY   61  51  70 N5        29.94F
Provincetown   CLOUDY    53  51  93 N12       29.93S
Nantucket      CLOUDY    61  55  81 N17       29.90F
$$

ANZ330-335-338-340-345-350-353-355-231500-
COASTAL MARINE OBSERVATIONS


STATION/POSITION TIME  SKY/WX   TEMP    WIND        PRES    VSBY  WAVE
                                AIR SEA DIR/SP/G                  HT/PER
                 (UTC)          (F)     (DEG/KT/KT) (MB)    (MI)  (FT/S)
NY HARB ENTRANCE 1250            58 57  360/  8/  8 1014.2          2/ 6
20 S FIRE ISLAND 1350            56 55   10/  8/ 10 1013.3          3/ 7
GREAT SOUTH BAY  1330            60 64   30/ 10/ 12   N/A
23 SSW MONTAUK P 1250            55 55              1013.9          3/ 6
15 E BARNEGAT LI 1300               57                N/A           3/ 7
HUDSON CANYON    1250            54 54   20/ 12/ 14 1013.0          4/ 7
KINGS POINT      1348            58 57   40/  3/  4 1014.1
EXECUTION ROCKS  1345            60                   N/A
CENTRAL LI SOUND NOT AVBL
EASTERN LI SOUND NOT AVBL
ROBBINS REEF     1348            61      50/  4/  6 1014.8
$$


>>>>>>>>>>>>>>>>>>>>>>>>>>>> KEY <<<<<<<<<<<<<<<<<<<<<<<<<<<
>                                                          <
>     SKY/WX - Sky Condition/Present Weather               <
>     TMP    - Temperature in Fahrenheit                   <
>     DP     - Dew Point in Fahrenheit                     <
>     RH     - Relative Humidity in Percent                <
>     WIND   - Direction (from) and Speed in MPH           <
>     PRES   - Mean Sea Level Pressure (inches of Hg)      <
>     WCI    - Wind Chill Index                            <
>     VSB    - VISIBILITY IN MILES                         <
>     HX     - HEAT INDEX                                  <
>     TC     - TEMPERATURE IN CELSIUS                      <
>     VRB    - VARIABLE WIND DIRECTION                     <
>                                                          <
>>>>>>>>>>>>>>>>>>>>>>>>>>>> KEY <<<<<<<<<<<<<<<<<<<<<<<<<<<



USA.gov is the U.S. government's official web portal to all federal, state and local government web resources and services.